Regional Weather Roundup
Issued by NWS

Home | Current Version | Previous Version | Text Only | Print | Product List | Glossary On
Versions: 1 2 3 4 5 6 7 8 9 10 11 12 13 14 15 16 17 18 19 20 21 22 23 24 25 26 27 28 29 30 31 32 33 34 35 36 37 38 39 40 41 42 43 44 45 46 47 48 49 50
000
ASUS43 KBIS 170559
RWRND

NORTH DAKOTA REGIONAL WEATHER ROUNDUP
NATIONAL WEATHER SERVICE BISMARCK ND
100 AM CDT WED SEP 17 2014

NOTE: "FAIR" INDICATES FEW OR NO CLOUDS BELOW 12,000 FEET WITH NO
SIGNIFICANT WEATHER AND/OR OBSTRUCTIONS TO VISIBILITY.


NDZ001>003-009>011-017-170700-
NORTHWEST NORTH DAKOTA

CITY           SKY/WX    TMP DP  RH WIND       PRES   REMARKS
WILLISTON      CLEAR     41  36  82 CALM      29.93S HAZE
6HR MIN TEMP:  41; 6HR MAX TEMP:  71;

MINOT          CLEAR     50  44  80 SW7       29.91S
MINOT AFB      CLEAR     43  41  93 W7        29.91R
$$

NDZ018>021-031>035-040>046-170700-
SOUTHWEST NORTH DAKOTA

CITY           SKY/WX    TMP DP  RH WIND       PRES   REMARKS
BISMARCK       CLEAR     46  42  86 VRB3      29.94R
6HR MIN TEMP:  46; 6HR MAX TEMP:  72;

DICKINSON      PTCLDY    51  42  71 S3        29.94R
GARRISON         N/A     46  42  86 NE5       29.93R
6HR MIN TEMP:  43; 6HR MAX TEMP:  69;

HETTINGER ARPT MOCLDY    48  43  82 W3        29.95S
$$

NDZ004>008-012>016-024-026-027-054-170700-
NORTHEAST NORTH DAKOTA

CITY           SKY/WX    TMP DP  RH WIND       PRES   REMARKS
GRAND FORKS    CLEAR     48  43  82 S7        29.90S
GRND FRKS AFB  CLEAR     48  44  85 S5        29.91S
DEVILS LAKE    CLEAR     48  37  66 CALM      29.90S
$$

NDZ022-023-025-028>030-036>039-047>053-170700-
SOUTHEAST NORTH DAKOTA

CITY           SKY/WX    TMP DP  RH WIND       PRES   REMARKS
FARGO          CLEAR     57  46  66 SE8       29.91S
6HR MIN TEMP:  53; 6HR MAX TEMP:  67;

$$



USA.gov is the U.S. government's official web portal to all federal, state and local government web resources and services.